This demonstration page uses our WeatherBlox Daily Observations layout. Learn more.

Left ArrowRight Arrow

38.89511, -77.03637

Hourly Observations for January 23, 2019

Temp ( °F °C ) Dew Point ( °F °C ) Humidity (%) Winds ( mph kmh ) Pressure ( in mb ) Visibility ( mi km ) Precip ( " mm )
12:52 am 00:52 Mostly Cloudy 32 0 12 -11.1 43 43 S 13 20 30.51 1033 10 16 0.00 0.00
1:52 am 01:52 Cloudy 32 0 13 -10.6 45 45 S 13 20 30.48 1032 10 16 0.00 0.00
2:52 am 02:52 Cloudy 32 0 13 -10.6 45 45 S 13 20 30.45 1031 10 16 0.00 0.00
3:52 am 03:52 Cloudy 32 0 12 -11.1 43 43 S 15 24 30.42 1030 10 16 0.00 0.00
4:52 am 04:52 Cloudy 33 0.6 14 -10 45 45 S 15 24 30.38 1029 10 16 0.00 0.00
5:47 am 05:47 Cloudy 34 1 12 -11 41 41 S 14 22 30.39 1029 10 16 0.00 0.00
5:52 am 05:52 Cloudy 34 1.1 12 -11.1 40 40 S 14 22 30.37 1029 10 16 0.00 0.00
6:15 am 06:15 Cloudy 34 1.1 12 -11.1 40 40 S 15 24 30.36 1028 10 16 0.00 0.00
6:52 am 06:52 Cloudy 34 1.1 13 -10.6 42 42 SSW 15 24 30.35 1028 10 16 0.00 0.00
6:58 am 06:58 Cloudy 34 1.1 12 -11.1 40 40 SSW 14 22 30.36 1028 10 16 0.00 0.00
7:52 am 07:52 Cloudy 35 1.7 12 -11.1 38 38 SSW 15 24 30.33 1027 10 16 0.00 0.00
8:52 am 08:52 Cloudy 37 2.8 13 -10.6 37 37 SSW 13 20 30.32 1027 10 16 0.00 0.00
9:52 am 09:52 Cloudy 40 4.4 15 -9.4 36 36 SSW 14 22 30.30 1026 10 16 0.00 0.00
10:52 am 10:52 Cloudy 43 6.1 21 -6.1 42 42 SSW 16 26 30.29 1026 10 16 0.00 0.00
11:52 am 11:52 Cloudy 46 7.8 26 -3.3 46 46 SSW 20 31 30.24 1024 10 16 0.00 0.00
12:52 pm 12:52 Cloudy 49 9.4 29 -1.7 46 46 SSW 18 30 30.20 1023 10 16 0.00 0.00
1:52 pm 13:52 Cloudy 51 10.6 33 0.6 50 50 SSW 16 26 30.14 1021 10 16 0.00 0.00
2:52 pm 14:52 Cloudy 49 9.4 35 1.7 59 59 S 13 20 30.10 1019 10 16 0.00 0.00
3:52 pm 15:52 Mostly Cloudy 47 8.3 36 2.2 66 66 S 12 19 30.08 1019 10 16 0.00 0.00
4:52 pm 16:52 Mostly Cloudy 48 8.9 36 2.2 63 63 S 9 15 30.05 1018 10 16 0.00 0.00
5:52 pm 17:52 Mostly Cloudy 48 8.9 37 2.8 66 66 S 9 15 30.03 1017 10 16 0.00 0.00
6:52 pm 18:52 Cloudy 48 8.9 37 2.8 66 66 SSW 6 9 30.01 1016 10 16 0.00 0.00
7:52 pm 19:52 Mostly Cloudy 46 7.8 36 2.2 68 68 S 6 9 29.97 1015 10 16 0.00 0.00
8:48 pm 20:48 Cloudy 48 9 37 3 66 66 W 3 6 29.94 1014 10 16 0.00 0.00
8:52 pm 20:52 Cloudy 49 9.4 38 3.3 66 66 WNW 3 6 29.95 1014 10 16 0.00 0.00
9:38 pm 21:38 Cloudy 47 8.3 37 2.8 69 69 S 3 6 29.91 1013 10 16 0.00 0.00
9:44 pm 21:44 Cloudy 46 7.8 37 2.8 71 71 SSE 3 6 29.91 1013 10 16 0.00 0.00
9:46 pm 21:46 Cloudy 46 8 37 3 71 71 SSE 3 6 29.91 1013 10 16 0.00 0.00
9:52 pm 21:52 Cloudy 46 7.8 37 2.8 71 71 Calm 29.92 1013 10 16 0.00 0.00
10:52 pm 22:52 Cloudy 44 6.7 37 2.8 76 76 S 3 6 29.90 1013 10 16 0.00 0.00
11:52 pm 23:52 Cloudy 51 10.6 47 8.3 86 86 S 13 20 29.86 1011 10 16 0.00 0.03

Powered by AerisWeather